Location: Caltech
(34.1382°N, 118.1253°W)
Time: 06:51:22
(UTC-08:00)

Cosmos 1833 - Visible Passes

Search period start: 24 February 2017 00:00
Search period end: 06 March 2017 00:00
Orbit: 831 x 868 km, 70.9° (Epoch: 23 February)

Date Brightness Start Highest point End Pass type
(mag) Time Alt. Az. Time Alt. Az. Time Alt. Az.
24 Feb 4.5 04:24:43 10° NNW 04:30:17 65° ENE 04:35:50 10° SSE visible
24 Feb 6.0 19:14:07 10° SW 19:19:09 32° WNW 19:24:11 10° N visible
25 Feb 4.5 04:13:34 19° N 04:17:35 65° ENE 04:23:08 10° SSE visible
25 Feb 5.8 05:58:37 10° WNW 06:01:08 13° W 06:03:39 10° SW visible
25 Feb 6.0 19:01:25 10° SW 19:06:27 32° WNW 19:11:29 10° N visible
26 Feb 4.5 04:03:27 47° N 04:04:53 64° ENE 04:10:26 10° SSE visible
26 Feb 5.8 05:45:52 10° WNW 05:48:27 13° W 05:51:01 10° SW visible
26 Feb 6.0 18:48:43 10° SW 18:53:46 32° WNW 18:58:48 10° N visible
27 Feb 4.8 03:53:20 51° ESE 03:53:20 51° ESE 03:57:44 10° SSE visible
27 Feb 5.7 05:35:28 13° W 05:35:45 14° W 05:38:23 10° SW visible
27 Feb 6.0 18:36:00 10° SW 18:41:04 32° WNW 18:46:06 10° N visible
28 Feb 6.0 03:43:08 22° SE 03:43:08 22° SE 03:45:02 10° SSE visible
28 Feb 6.0 05:25:16 11° WSW 05:25:16 11° WSW 05:25:45 10° SW visible
28 Feb 6.0 18:23:18 10° SW 18:28:22 33° WNW 18:33:25 10° N visible
01 Mar 6.1 18:10:35 10° SW 18:15:40 33° WNW 18:20:44 10° N visible
